DMSP 5D-2 F13 DEB, 40525

Orbit data source: Space-Track

DMSP 5D-2 F13 DEB, 40525 is space debris in SSO originally from a launch on Fri, 24 Mar 1995 UTC launched from the Air Force Western Test Range (AFWTR). Debris objects in space refer to the collection of defunct objects orbiting the Earth. Examples of debris include non-operational satellites, rocket bodies, and fragments generated from explosions, collisions, or faulty payload assembly.

Loading next visibility...
Identifier
40525, 1995-015DM
Orbit
SSO
Country
Flag of USUS
Related business
Manufacturer
Unknown
Mission
Spacecraft
Bus & Motor
Unknown
Mass
Unknown
Launch date (UTC)
1995-03-24 (31 years ago)
Launch vehicle
Unknown
Launch site
Air Force Western Test Range (AFWTR)
Object type
Payload
Rocket body
Debris
Shape & HBR
Unknown shape, 0.1 m
Radar Cross Section
Small (<0.1 m²)

Expand to show TLE details & history
Last TLE update: 3 days ago

TLE from 3 days ago
0 DMSP 5D-2 F13 DEB
1 40525U 95015DM  25340.56519150  .00009570  00000-0  31967-2 0  9991
2 40525  98.6837  16.0753 0012710 110.4695 249.7857 14.37614928554458
Epoch: 2025-12-06T13:33Z
TLE epoch observation values (Epoch: 2025-12-06T13:33:52.545Z)
Latitude
-0.00003°
Longitude
97.01526°
Altitude
772.477 km
Speed
7.466 km/s
True Right ascension
01h 04m 18s
True Declination
0° 00' 00"
Sunlit
Object was in full shadow at epoch
Visualization orbit readout
Latitude
Unknown
Longitude
Unknown
Altitude
Unknown
Speed
Unknown
Apparent Right ascension
Unknown
Apparent Declination
Unknown
Sunlit
N/A
Visualization observer readout
Local Sidereal Time
19:05:09
Azimuth
Unknown
Elevation
Unknown
Doppler factor
Unknown
Orbital elements
Apogee altitude
772.6 km
Perigee altitude
754.446 km
Semi-major axis
7,141.66 km
Eccentricity
0.00127
Inclination
98.6837°
RAAN
16.0753°
Arg. of periapsis
110.4695°
True anomaly
249.6491°
Mean anomaly
249.7857°
Eccentric anomaly
249.71739°
Mean motion
3.5962 °/min
Orbital period
100.11 mins
BSTAR
0.0031967
Loading maneuver chart data...
Computing Atmospheric mass density...

Documentation

Showing up to 5 results
|